Location: Berry Creek
(51.8849°N, 111.7341°W)
Time: 06:40:19
(UTC-06:00)

Daily predictions for brighter satellites

Satellite Brightness Start Highest point End
(mag) Time Altitude Azimuth Time Altitude Azimuth Time Altitude Azimuth
Cosmos 1898 Rocket 3.8 22:29:36 10° S 22:34:34 49° ESE 22:39:36 10° NE
SPOT 1/Viking Rocket 3.7 22:31:07 10° SSE 22:36:16 80° WSW 22:41:28 10° NNW
USA 229 DEB 4.1 22:29:23 10° SW 22:36:21 76° NW 22:43:27 10° NE
USA 229 4.1 22:29:29 10° SW 22:36:27 77° NW 22:43:33 10° NE
Cosmos 2058 3.0 22:35:01 10° SSW 22:39:08 83° W 22:43:16 10° N
Cosmos 2242 Rocket 3.7 22:36:49 10° N 22:41:20 89° E 22:45:50 10° S
Cosmos 292 Rocket 4.0 22:36:56 10° NNW 22:41:42 70° WSW 22:46:25 10° SSE
Cosmos 1862 Rocket 4.0 22:38:30 10° N 22:42:44 47° ENE 22:46:54 10° SSE
Cosmos 2227 Rocket 3.1 22:39:31 10° SSE 22:44:20 29° ESE 22:49:10 10° NE
Cosmos 2150 Rocket 4.2 22:39:46 10° S 22:45:08 61° ESE 22:50:33 10° NNE
Cosmos 1437 4.4 22:43:03 10° SW 22:46:08 37° WNW 22:49:14 10° N
Sich 1 3.1 22:42:27 10° S 22:46:52 75° E 22:51:15 10° NNE
CARTOSAT-1 3.9 22:45:36 10° SSE 22:49:48 55° ENE 22:54:03 10° N
CZ-4C R/B 3.9 22:44:10 10° NW 22:50:14 39° NNE 22:57:00 10° E
COSMOS 2455 3.2 22:44:48 10° NW 22:50:50 64° NE 22:56:49 10° SE
Meteor 1-11 4.3 22:45:54 10° S 22:51:41 89° WNW 22:57:25 10° NNE
Cosmos 1633 Rocket 3.0 22:47:40 10° S 22:52:03 79° E 22:56:26 10° NNE
ATLAS 5 CENTAUR R/B 4.3 22:48:04 10° WNW 22:52:36 29° NNW 22:57:31 10° NE
SAR-Lupe-2 4.2 22:49:36 10° SE 22:53:01 44° ENE 22:56:28 10° N
SL-16 R/B 2.8 22:48:40 10° NNW 22:54:14 52° NE 22:59:47 10° SE
Landsat 7 3.9 22:49:42 10° SSE 22:54:27 82° ENE 22:59:16 10° NNW
Cosmos 1346 4.1 22:52:21 10° SSE 22:55:02 29° E 22:57:44 10° NNE
Cosmos 2333 Rocket 2.4 22:49:44 10° NNW 22:55:31 77° WSW 23:01:16 10° SSE
USA 245 3.6 22:53:27 10° SSW 22:55:35 29° W 22:57:37 10° NW
NOSS 3-1 (A) 3.6 22:49:46 10° SSW 22:55:38 57° SE 23:02:12 10° NE
Cosmos 1455 2.4 22:51:57 10° N 22:55:44 60° ENE 22:59:30 10° SSE
ERBS 3.8 22:59:19 10° S 23:01:52 19° SE 23:04:24 10° E
COSMOS 2428 4.2 23:02:06 10° NW 23:06:56 29° WSW 23:11:43 10° SSW
DELTA 2 DEB (DPAF) 4.4 23:03:28 10° S 23:07:57 71° WSW 23:12:28 10° NNW
Cosmos 1726 3.7 23:04:42 10° NNW 23:08:07 32° W 23:11:32 10° SSW
Aureole 2 Rocket 4.5 23:06:52 10° N 23:08:59 17° NE 23:11:12 10° E
ARGOS 3.8 23:05:01 10° S 23:10:16 52° W 23:15:34 10° NNW
Terra 1.9 23:05:34 10° SSE 23:10:20 83° ENE 23:15:08 10° NNW
Cosmos 2219 Rocket 2.9 23:05:25 10° NW 23:10:47 48° WSW 23:16:08 10° S
Cosmos 2297 Rocket 3.0 23:06:07 10° SSE 23:11:05 33° ESE 23:16:06 10° NE
USA 32 4.4 23:06:23 10° NNW 23:11:37 64° W 23:16:47 10° S
IGS 5A 3.5 23:12:54 11° SSE 23:16:52 86° ENE 23:21:04 10° NNW
Spot 4 3.9 23:13:36 11° SSE 23:18:11 79° ENE 23:23:04 10° NNW
ATLAS 2AS CENTAUR R/B 3.4 23:11:17 10° S 23:18:18 42° ESE 23:25:46 10° NE
Cosmos 1900 4.4 23:16:02 10° NW 23:21:04 82° SW 23:25:23 13° SSE
Cosmos 1869 3.4 23:18:26 10° NNW 23:22:31 86° W 23:26:11 12° S
Tiangong 1 2.9 23:21:16 10° SSW 23:23:03 14° S 23:23:07 14° S
Cosmos 220 Rocket 4.0 23:20:16 10° SSW 23:24:41 87° ESE 23:29:10 10° NNE
Meteor 1-4 Rocket 4.4 23:22:22 10° NNW 23:25:36 27° W 23:28:47 10° SSW
ATLAS 3B R/B 2.8 23:19:14 10° NW 23:26:26 80° SW 23:32:30 13° SE
Cosmos 1937 Rocket 3.6 23:26:23 10° SSW 23:31:38 84° WNW 23:36:51 10° NNE
Cosmos 1980 4.4 23:26:23 10° NW 23:31:46 46° WSW 23:36:52 11° S
Okean 1-7 3.8 23:28:27 10° N 23:32:30 39° ENE 23:35:44 15° SE
CZ-4 R/B 4.4 23:28:25 10° N 23:33:19 63° WNW 23:38:07 10° SSW
ALOS 2 4.4 23:30:33 10° ESE 23:33:57 22° ENE 23:37:22 10° N
CZ-4C R/B 4.5 23:33:26 10° SSW 23:36:33 31° W 23:39:44 10° NNW
USA 238 DEB 3.9 23:31:38 10° NW 23:38:44 75° NE 23:45:45 10° SE
USA 238 3.9 23:31:44 10° NW 23:38:50 74° NE 23:45:51 10° SE
Cosmos 1241 Rocket 4.5 23:33:57 10° SSW 23:40:04 64° ESE 23:46:18 10° NE
Cosmos 990 Rocket 3.9 23:35:29 10° SSW 23:40:38 86° ESE 23:45:50 10° NNE
NOSS 3-1 (C) 3.8 23:35:35 10° SW 23:41:40 75° NW 23:48:36 10° NE
Cosmos 2237 Rocket 3.1 23:38:40 10° NW 23:43:58 41° WSW 23:48:54 12° S
Cosmos 1703 Rocket 3.6 23:39:37 10° N 23:44:00 77° ENE 23:47:23 17° SSE
Cosmos 1470 Rocket 4.0 23:40:33 10° SSW 23:44:49 62° WNW 23:49:08 10° N
Cosmos 1933 Rocket 4.0 23:41:31 10° SSW 23:45:56 64° WNW 23:50:24 10° N
Cosmos 2251 Rocket 4.2 23:43:14 10° NNW 23:48:25 48° ENE 23:52:57 13° SE
Cosmos 1626 2.7 23:51:00 10° SSW 23:54:42 57° WNW 23:58:27 10° N
